User: anonymous   Login
Location: Mohawk View
(42.7837°N, 73.7885°W)
Time: 20:38:35
(UTC+00:00)
Language:

AEROCUBE 8C - Orbit

View from above orbital plane
View from above orbital plane
View from above satellite
View from above satellite

Ground track
Ground track

The orbit data is extracted from the following two-line orbital elements,

1 41853U 16067F   22021.58868345  .00000737  00000-0  68395-4 0  9997
2 41853  97.9748 149.2201 0011002 107.0970 253.1457 14.97555599283700
Epoch (UTC): 21 January 2022 14:07:42
Eccentricity: 0.0011002
inclination: 97.9748°
perigee height: 567 km
apogee height: 582 km
right ascension of ascending node: 149.2201°
argument of perigee: 107.0970°
revolutions per day: 14.97555599
mean anomaly at epoch: 253.1457°
orbit number at epoch: 28370

The dashed part of the orbit path shows where the satellite is in the earth's shadow,  

DLR